Location: Laan Hart van Zuid
(52.2563°N, 6.7904°E)
Time: 01:25:32
(UTC+02:00)

BlueWalker 3 - Pass Details

Date: 24 April 2024
Orbit: 482 x 494 km, 53.2° (Epoch: 19 May)

Event Time Altitude Azimuth Distance (km) Brightness Sun altitude
Rises 01:23:33 0° 288° (WNW) 2,587 5.8 -24.8°
Reaches altitude 10° 01:25:49 10° 280° (W) 1,703 4.7 -24.8°
Enters shadow 01:26:00 11° 279° (W) 1,634 4.6 -24.8°
